Location: Clarion
(42.7316°N, 93.7330°W)
Time: 09:55:38
(UTC+00:00)

Cosmos 2360 Rocket - Pass Details

Date: 22 April 2026
Orbit: 831 x 845 km, 71.0° (Epoch: 17 May)

Event Time Altitude Azimuth Distance (km) Brightness Sun altitude
Rises 09:16:55 0° 331° (NNW) 3,411 5.5 -20.8°
Reaches altitude 10° 09:19:24 10° 327° (NNW) 2,473 4.7 -20.5°
Maximum altitude 09:24:56 55° 251° (WSW) 1,006 2.2 -19.7°
Enters shadow 09:29:09 17° 179° (S) 1,997 3.8 -19.1°
